Location: Colonia Mina de C?rbuni
(46.1667°N, 22.7167°E)
Time: 18:52:36
(UTC+00:00)

Tiros 1 - Pass Details

Date: 25 April 2024
Orbit: 620 x 651 km, 48.4° (Epoch: 21 May)

Event Time Altitude Azimuth Distance (km) Brightness Sun altitude
Rises 00:33:24 0° 283° (WNW) 2,917 - -24.1°
Reaches altitude 10° 00:35:45 10° 285° (WNW) 2,003 - -23.9°
Exits shadow 00:38:59 44° 298° (WNW) 866 7.7 -23.6°
Maximum altitude 00:40:21 73° 11° (N) 654 7.2 -23.4°
Drops below altitude 10° 00:44:55 10° 96° (E) 1,986 10.0 -22.9°
Sets 00:47:13 0° 98° (E) 2,889 10.9 -22.7°
